This is the latest recevied weather packets stored in our database for station/object KC4JIR. If no packets are shown the sender has not sent any weather packets the latest 10 day(s).
| Time | Temp. | Humidity | Pressure | Rain* | Wind** | Luminosity | Snow |
|---|---|---|---|---|---|---|---|
| 1788574303 | 25° C | 99% | 1013 hPa | 1.27 mm | - | 0 W/m² | - |
| 1788573976 | 25° C | 99% | 1013 hPa | 0 mm | - | 0 W/m² | - |
| 1788573671 | 25° C | 99% | 1013.1 hPa | 0 mm | - | 0 W/m² | - |
| 1788573369 | 25° C | 99% | 1013.1 hPa | 0 mm | - | 0 W/m² | - |
| 1788573064 | 25° C | 99% | 1013 hPa | 0 mm | - | 0 W/m² | - |
| 1788572758 | 25° C | 99% | 1013 hPa | 0 mm | - | 0 W/m² | - |
| 1788572458 | 25° C | 99% | 1013 hPa | 0 mm | - | 0 W/m² | - |
| 1788572150 | 25° C | 99% | 1012.9 hPa | 0 mm | - | 0 W/m² | - |
| 1788571846 | 25° C | 99% | 1013.1 hPa | 0 mm | - | 0 W/m² | - |
| 1788571545 | 25° C | 99% | 1013 hPa | 0 mm | - | 0 W/m² | - |
| 1788571242 | 25° C | 99% | 1013.1 hPa | 0 mm | - | 0 W/m² | - |
| 1788570938 | 25° C | 99% | 1013 hPa | 0 mm | - | 0 W/m² | - |
| 1788570636 | 25° C | 99% | 1012.9 hPa | 0 mm | - | 0 W/m² | - |
| 1788570328 | 25° C | 99% | 1012.9 hPa | 0 mm | - | 0 W/m² | - |
| 1788570024 | 25.56° C | 99% | 1012.9 hPa | 0 mm | - | 0 W/m² | - |
| 1788569719 | 25.56° C | 99% | 1012.8 hPa | 0 mm | - | 0 W/m² | - |
| 1788569414 | 25.56° C | 99% | 1012.7 hPa | 0 mm | - | 0 W/m² | - |
| 1788569108 | 25.56° C | 99% | 1012.6 hPa | 0 mm | - | 0 W/m² | - |
| 1788568803 | 25.56° C | 99% | 1012.7 hPa | 0 mm | - | 0 W/m² | - |
| 1788568499 | 25.56° C | 99% | 1012.4 hPa | 0 mm | - | 0 W/m² | - |
| 1788568194 | 25.56° C | 99% | 1012.3 hPa | 1.78 mm | - | 0 W/m² | - |
| 1788567890 | 25.56° C | 99% | 1012.5 hPa | 9.65 mm | - | 0 W/m² | - |
| 1788567590 | 26.11° C | 99% | 1012.3 hPa | 18.03 mm | - | 0 W/m² | - |
| 1788567285 | 26.67° C | 98% | 1012.2 hPa | 18.03 mm | - | 0 W/m² | - |
| 1788566979 | 27.78° C | 94% | 1012.6 hPa | 11.94 mm | - | 0 W/m² | - |
* Rain latest hour (hover to see other rain measurements)
** Current wind speed in m/s (hover to see current wind gust speed)